Location: Lombard
(41.8800°N, 88.0080°W)
Time: 12:45:34
(UTC-05:00)

A-11 Canister half - Pass Details

Date: 02 February 2023
Orbit: 1512 x 1687 km, 47.2° (Epoch: 20 March)

Event Time Altitude Azimuth Distance (km) Brightness Sun altitude
Rises 18:57:21 0° 292° (WNW) 4,678 12.6 -20.5°
Reaches altitude 10° 19:01:10 10° 279° (W) 3,680 12.1 -21.2°
Maximum altitude 19:07:53 23° 232° (SW) 2,772 10.9 -22.5°
Drops below altitude 10° 19:14:37 10° 184° (S) 3,669 11.0 -23.7°
Sets 19:18:27 0° 171° (S) 4,661 11.5 -24.4°
